Puyallup, WA
on Sunday, February 3, 2013

Sunday
Previous Day Next Day
Daily Summary
 ActualAverage (KSEA)Record (KSEA)
Temperature
Mean Temperature °F 43°F  
Max Temperature 46°F 49°F 63°F (1992)
Min Temperature 32°F 37°F 8°F (1950)
Degree Days
Heating Degree Days 26 22  
Month to date heating degree days 66  
Since 1 July heating degree days 2715  
Cooling Degree Days 0 0  
Month to date cooling degree days 0  
Year to date cooling degree days 0  
Moisture
Dew Point 39°F   
Average Humidity 95    
Maximum Humidity 100    
Minimum Humidity 81    
Precipitation
Precipitation 0.00 in 0.14 in 1.29 in (1968)
Month to date precipitation 0.40  
Year to date precipitation 5.97  
Snow
Snow 0.00 in in 1.30 in (1949)
Month to date snowfall  
Since 1 July snowfall  
Snow Depth in   
Wind
Wind Speed 0 mph   
Max Wind Speed 5 mph   
Max Gust Speed mph   
Visibility 8 miles   
Events Fog , Rain   

Key: T is trace of precipitation, MM is missing value
Source: NWS Daily Summary
Time(PST)TemperatureDew PointHumidity Pressure Visibility Wind DirectionWind SpeedGust SpeedPrecipitationEvents Conditions
12:15 AM 32.0°F 32.0°F 100% 30.28 in 2.0 miles Calm Calm - N/A   Clear
12:35 AM 32.0°F 32.0°F 100% 30.28 in 6.0 miles Calm Calm - N/A   Clear
12:55 AM 32.0°F 32.0°F 100% 30.29 in 2.5 miles Calm Calm - N/A   Scattered Clouds
1:15 AM 32.0°F 32.0°F 100% 30.29 in 0.2 miles Calm Calm - N/A Fog Fog
1:35 AM 32.0°F 32.0°F 100% 30.29 in 0.8 miles North - - N/A   Overcast
1:55 AM 32.0°F 32.0°F 100% 30.29 in 0.5 miles North - - N/A Fog Fog
2:15 AM 32.0°F 32.0°F 100% 30.28 in 0.5 miles Calm Calm - N/A Fog Light Freezing Fog
2:35 AM 32.0°F 32.0°F 100% 30.28 in 5.0 miles Calm Calm - N/A   Partly Cloudy
2:55 AM 32.0°F 32.0°F 100% 30.28 in 4.0 miles Calm Calm - N/A   Clear
3:15 AM 32.0°F 32.0°F 100% 30.27 in 10.0 miles Calm Calm - N/A   Mostly Cloudy
3:35 AM 32.0°F 32.0°F 100% 30.27 in 8.0 miles Calm Calm - N/A   Overcast
4:15 AM 32.0°F 32.0°F 100% 30.28 in 10.0 miles Calm Calm - N/A   Overcast
4:35 AM 32.0°F 32.0°F 100% 30.28 in 9.0 miles Calm Calm - N/A   Overcast
4:55 AM 33.8°F 33.8°F 100% 30.28 in 9.0 miles Calm Calm - N/A   Overcast
5:15 AM 35.6°F 35.6°F 100% 30.28 in 10.0 miles Calm Calm - N/A   Overcast
5:35 AM 35.6°F 35.6°F 100% 30.28 in 8.0 miles Calm Calm - N/A   Overcast
5:55 AM 35.6°F 35.6°F 100% 30.28 in 8.0 miles Calm Calm - N/A   Overcast
6:15 AM 35.6°F 35.6°F 100% 30.28 in 9.0 miles Calm Calm - N/A   Overcast
6:35 AM 37.4°F 37.4°F 100% 30.27 in 9.0 miles Calm Calm - N/A   Overcast
6:55 AM 37.4°F 37.4°F 100% 30.29 in 10.0 miles Calm Calm - N/A   Overcast
7:15 AM 39.2°F 39.2°F 100% 30.28 in 10.0 miles Calm Calm - N/A   Overcast
7:35 AM 39.2°F 39.2°F 100% 30.29 in 8.0 miles Calm Calm - N/A   Overcast
7:55 AM 39.2°F 39.2°F 100% 30.29 in 6.0 miles Calm Calm - N/A   Overcast
8:15 AM 39.2°F 39.2°F 100% 30.29 in 10.0 miles Calm Calm - N/A   Overcast
8:55 AM 39.2°F 39.2°F 100% 30.30 in 10.0 miles Calm Calm - N/A   Overcast
9:15 AM 41.0°F 41.0°F 100% 30.30 in 10.0 miles Calm Calm - N/A   Overcast
9:35 AM 41.0°F 41.0°F 100% 30.30 in 10.0 miles Calm Calm - N/A   Overcast
9:55 AM 41.0°F 41.0°F 100% 30.30 in 10.0 miles Calm Calm - N/A   Overcast
10:15 AM 41.0°F 41.0°F 100% 30.30 in 10.0 miles Calm Calm - N/A   Overcast
10:35 AM 41.0°F 41.0°F 100% 30.30 in 10.0 miles Calm Calm - N/A   Overcast
10:55 AM 41.0°F 41.0°F 100% 30.30 in 10.0 miles Calm Calm - N/A   Overcast
11:15 AM 41.0°F 41.0°F 100% 30.30 in 10.0 miles WSW 3.5 mph - N/A   Overcast
11:35 AM 41.0°F 41.0°F 100% 30.30 in 10.0 miles Calm Calm - N/A   Overcast
11:55 AM 44.6°F 41.0°F 87% 30.29 in 10.0 miles Calm Calm - N/A   Overcast
12:15 PM 44.6°F 39.2°F 81% 30.28 in 10.0 miles Calm Calm - N/A   Overcast
12:55 PM 46.4°F 41.0°F 81% 30.28 in 10.0 miles WSW 4.6 mph - N/A   Overcast
1:15 PM 46.4°F 41.0°F 81% 30.27 in 10.0 miles SW 3.5 mph - N/A   Overcast
1:35 PM 46.4°F 41.0°F 81% 30.27 in 10.0 miles SW 3.5 mph - N/A   Overcast
1:55 PM 46.4°F 41.0°F 81% 30.26 in 10.0 miles Calm Calm - N/A   Mostly Cloudy
2:15 PM 46.4°F 41.0°F 81% 30.26 in 10.0 miles Calm Calm - N/A   Mostly Cloudy
2:55 PM 46.4°F 41.0°F 81% 30.26 in 10.0 miles Calm Calm - N/A   Mostly Cloudy
3:15 PM 46.4°F 41.0°F 81% 30.26 in 10.0 miles Calm Calm - N/A   Mostly Cloudy
3:55 PM 46.4°F 41.0°F 81% 30.25 in 10.0 miles SW 3.5 mph - N/A   Overcast
4:15 PM 46.4°F 41.0°F 81% 30.25 in 10.0 miles Calm Calm - N/A   Overcast
4:35 PM 46.4°F 41.0°F 81% 30.25 in 10.0 miles Calm Calm - N/A   Overcast
4:55 PM 46.4°F 41.0°F 81% 30.25 in 10.0 miles Calm Calm - N/A   Mostly Cloudy
5:35 PM 44.6°F 41.0°F 87% 30.26 in 10.0 miles Calm Calm - N/A   Overcast
5:55 PM 44.6°F 41.0°F 87% 30.25 in 10.0 miles Calm Calm - N/A   Mostly Cloudy
6:15 PM 44.6°F 41.0°F 87% 30.25 in 9.0 miles Calm Calm - N/A Rain Light Rain
6:35 PM 44.6°F 42.8°F 93% 30.25 in 7.0 miles SSW 3.5 mph - N/A Rain Light Rain
6:55 PM 44.6°F 42.8°F 93% 30.24 in 7.0 miles Calm Calm - N/A Rain Light Rain
7:15 PM 42.8°F 42.8°F 100% 30.25 in 8.0 miles Calm Calm - N/A Rain Light Rain
7:35 PM 42.8°F 42.8°F 100% 30.24 in 8.0 miles Calm Calm - N/A Rain Light Rain
7:55 PM 42.8°F 42.8°F 100% 30.23 in 10.0 miles Calm Calm - N/A Rain Light Rain
8:15 PM 42.8°F 42.8°F 100% 30.23 in 10.0 miles Calm Calm - N/A Rain Light Rain
8:55 PM 42.8°F 42.8°F 100% 30.23 in 10.0 miles Calm Calm - N/A   Overcast
9:15 PM 42.8°F 42.8°F 100% 30.23 in 10.0 miles West 3.5 mph - N/A   Overcast
9:35 PM 42.8°F 42.8°F 100% 30.23 in 10.0 miles Calm Calm - N/A   Overcast
9:55 PM 42.8°F 42.8°F 100% 30.23 in 10.0 miles Calm Calm - N/A   Overcast
10:15 PM 42.8°F 42.8°F 100% 30.23 in 10.0 miles Calm Calm - N/A   Overcast
10:35 PM 42.8°F 42.8°F 100% 30.22 in 10.0 miles Calm Calm - N/A   Overcast
10:55 PM 41.0°F 41.0°F 100% 30.23 in 10.0 miles Calm Calm - N/A   Overcast
11:15 PM 41.0°F 41.0°F 100% 30.22 in 10.0 miles Calm Calm - N/A   Overcast
11:55 PM 42.8°F 42.8°F 100% 30.22 in 10.0 miles Calm Calm - N/A   Overcast
Moon Phase
Feb. 03 Feb. 10 Feb. 17 Feb. 25 Mar. 04
Sunrise:07:31 AM (PST) Moon Rise:01:06 AM (PST)2/3
Sunset:05:15 PM (PST) Moon Set:10:53 AM (PST)2/3

Copyright © 2014 The Weather Underground, Inc.